Regional Weather Roundup
Issued by NWS

Home | Current Version | Previous Version | Text Only | Print | Product List | Glossary Off
Versions: 1 2 3 4 5 6 7 8 9 10 11 12 13 14 15 16 17 18 19 20 21 22 23 24 25 26 27 28 29 30 31 32 33 34 35 36 37 38 39 40 41 42 43 44 45 46 47 48 49 50

000
ASUS43 KBIS 241520
RWRND

NORTH DAKOTA REGIONAL WEATHER ROUNDUP
NATIONAL WEATHER SERVICE BISMARCK ND
900 AM CST MON NOV 24 2014

NOTE: "FAIR" INDICATES FEW OR NO CLOUDS BELOW 12,000 FEET WITH NO
SIGNIFICANT WEATHER AND/OR OBSTRUCTIONS TO VISIBILITY.


NDZ001>003-009>011-017-241600-
NORTHWEST NORTH DAKOTA

CITY           SKY/WX    TMP DP  RH WIND       PRES   REMARKS
WILLISTON      CLOUDY    10   7  87 W7        29.94R WCI  -1
MINOT          PTCLDY     6   0  76 NW14      29.89R WCI -11
MINOT AFB      PTCLDY     4   0  82 NW10      29.90R WCI -11
$$

NDZ018>021-031>035-040>046-241600-
SOUTHWEST NORTH DAKOTA

CITY           SKY/WX    TMP DP  RH WIND       PRES   REMARKS
BISMARCK       CLEAR     13   7  77 NW10      29.88R WCI   0
DICKINSON      PTCLDY    13   9  84 NW14      29.84R WCI  -2
GARRISON         N/A      8   3  80 NW12      29.87R WCI  -7
HETTINGER ARPT PTCLDY    16  12  84 NW13      29.86R WCI   2
$$

NDZ004>008-012>016-024-026-027-054-241600-
NORTHEAST NORTH DAKOTA

CITY           SKY/WX    TMP DP  RH WIND       PRES   REMARKS
GRAND FORKS    CLOUDY     5   0  79 NW24G33   29.75R WCI -17
GRND FRKS AFB  MOCLDY     5   0  78 N20G26    29.77R WCI -15
DEVILS LAKE    PTCLDY     9  -2  61 N22G29    29.79R WCI -11
$$

NDZ022-023-025-028>030-036>039-047>053-241600-
SOUTHEAST NORTH DAKOTA

CITY           SKY/WX    TMP DP  RH WIND       PRES   REMARKS
FARGO          CLOUDY    10   4  76 NW29      29.71R WCI -12
JAMESTOWN      CLEAR      9   4  80 NW23G33   29.75R WCI -11
$$




USA.gov is the U.S. government's official web portal to all federal, state and local government web resources and services.